FW0285 Weather Reports


time (UTC)temp
C
wind
direction
speed
KPH
gust
KPH
rain 1hr
cm
rain 24hr
cm
rain mn
cm
humidity
%
barometer
mb
20260507141955 13 317 0.0 0.0 0.00 0.00 0.00 88 1016.2
20260507135801 12 317 0.0 0.0 0.00 0.00 0.00 87 1016.1
20260507134301 12 317 0.0 0.0 0.00 0.00 0.00 87 1016.0
20260507132800 12 317 0.0 0.0 0.00 0.00 0.00 87 1015.8
20260507131302 12 317 0.0 0.0 0.00 0.00 0.00 86 1015.7
20260507130448 12 317 0.0 0.0 0.00 0.00 0.00 86 1015.7
20260507124302 12 317 0.0 0.0 0.00 0.00 0.00 86 1015.6
20260507122800 13 317 0.0 0.0 0.00 0.00 0.00 86 1015.5
20260507121301 13 317 0.0 0.0 0.00 0.00 0.00 86 1015.5
20260507115801 13 317 0.0 0.0 0.00 0.00 0.00 86 1015.6
20260507114302 13 317 0.0 0.0 0.00 0.00 0.00 86 1015.8
20260507112802 13 317 0.0 0.0 0.00 0.00 0.00 86 1015.8
20260507111302 13 317 0.0 0.0 0.00 0.00 0.00 85 1016.0
20260507105800 13 317 0.0 0.0 0.00 0.00 0.00 85 1016.0
20260507104301 13 317 0.0 0.0 0.00 0.00 0.00 85 1016.0
20260507102801 14 317 0.0 0.0 0.00 0.00 0.00 85 1016.1
20260507101301 14 317 0.0 0.0 0.00 0.00 0.00 85 1016.1
20260507100503 14 317 0.0 0.0 0.00 0.00 0.00 84 1016.0
20260507094302 14 317 0.0 0.0 0.00 0.00 0.00 84 1016.2
20260507092802 15 317 0.0 0.0 0.00 0.00 0.00 84 1016.3
20260507091301 15 317 0.0 0.0 0.00 0.00 0.00 83 1016.5
20260507085801 15 317 0.0 0.0 0.00 0.00 0.00 83 1016.7
20260507084300 15 317 0.0 0.0 0.00 0.00 0.00 82 1016.8
20260507082803 15 317 0.0 0.0 0.00 0.00 0.00 82 1016.9
20260507081959 15 317 0.0 0.0 0.00 0.00 0.00 82 1017.0
20260507075801 15 317 0.0 0.0 0.00 0.00 0.00 82 1017.1
20260507074300 15 317 0.0 0.0 0.00 0.00 0.00 81 1017.0
20260507072800 15 317 0.0 0.0 0.00 0.00 0.00 81 1016.9
20260507071302 16 317 0.0 0.0 0.00 0.00 0.00 81 1017.0
20260507065803 16 317 0.0 0.0 0.00 0.00 0.00 80 1017.1
20260507065003 16 317 0.0 0.0 0.00 0.00 0.00 79 1017.2
20260507062803 16 317 0.0 0.0 0.00 0.00 0.00 79 1017.2
20260507061302 16 317 0.0 0.0 0.00 0.00 0.00 78 1017.2
20260507055759 16 317 0.0 0.0 0.00 0.00 0.00 77 1017.3
20260507054257 16 317 0.0 0.0 0.00 0.00 0.00 77 1017.2
20260507052755 16 317 0.0 0.0 0.00 0.00 0.00 76 1017.2
20260507052633 16 317 0.0 0.0 0.00 0.00 0.00 75 1017.2
20260507045751 16 317 0.0 0.0 0.00 0.00 0.00 75 1017.2
20260507044249 16 317 0.0 0.0 0.00 0.00 0.00 74 1017.1
20260507043446 17 317 0.0 1.6 0.00 0.00 0.00 73 1017.1
20260507041247 17 317 0.0 4.8 0.00 0.00 0.00 73 1017.0
20260507040435 17 355 1.6 4.8 0.00 0.00 0.00 72 1016.8
20260507034247 17 338 1.6 4.8 0.00 0.00 0.00 71 1016.7
20260507032746 17 279 1.6 4.8 0.00 0.00 0.00 70 1016.6
20260507031947 18 301 1.6 6.4 0.00 0.00 0.00 70 1016.6
20260507025745 18 323 1.6 6.4 0.00 0.00 0.00 68 1016.5
20260507024247 19 314 1.6 6.4 0.00 0.00 0.00 67 1016.3
20260507022744 19 277 1.6 6.4 0.00 0.00 0.00 67 1016.1
20260507021243 20 267 3.2 6.4 0.00 0.00 0.00 65 1015.9
20260507015742 21 262 3.2 6.4 0.00 0.00 0.00 64 1015.9
20260507014243 21 326 3.2 11.3 0.00 0.00 0.00 62 1015.6
20260507012742 22 269 3.2 11.3 0.00 0.00 0.00 60 1015.5
20260507011243 22 267 1.6 9.7 0.00 0.00 0.00 59 1015.5
20260507005743 23 300 3.2 12.9 0.00 0.00 0.00 58 1015.5
20260507004240 23 283 3.2 11.3 0.00 0.00 0.00 57 1015.4
20260507002734 24 286 3.2 9.7 0.00 0.00 0.00 55 1015.3
20260507001235 24 290 3.2 11.3 0.00 0.00 0.00 52 1015.2
20260506235734 25 301 3.2 9.7 0.00 0.00 0.00 52 1015.2
20260506234232 25 247 4.8 11.3 0.00 0.00 0.00 51 1015.2
20260506233420 25 338 3.2 9.7 0.00 0.00 0.00 49 1015.2
20260506231230 25 287 3.2 14.5 0.00 0.00 0.00 49 1015.2
20260506225730 25 291 3.2 12.9 0.00 0.00 0.00 48 1015.5
20260506224230 25 215 3.2 11.3 0.00 0.00 0.00 48 1015.6
20260506223421 25 336 3.2 11.3 0.00 0.00 0.00 49 1015.8
20260506221230 25 313 4.8 12.9 0.00 0.00 0.00 50 1015.9
20260506215730 25 264 3.2 9.7 0.00 0.00 0.00 50 1016.1
20260506214229 25 277 3.2 12.9 0.00 0.00 0.00 50 1016.3
20260506212730 25 229 3.2 11.3 0.00 0.00 0.00 53 1016.4
20260506211229 25 170 3.2 9.7 0.00 0.00 0.00 55 1016.6
20260506205729 25 328 3.2 11.3 0.00 0.00 0.00 54 1016.7
20260506204229 24 281 3.2 11.3 0.00 0.00 0.00 57 1016.8
20260506202729 25 287 3.2 9.7 0.00 0.00 0.00 55 1016.8
20260506201229 24 249 3.2 11.3 0.00 0.00 0.00 59 1017.0
20260506195727 24 264 4.8 11.3 0.00 0.00 0.00 57 1017.1
20260506194226 24 160 3.2 16.1 0.00 0.00 0.00 57 1017.1
20260506192726 24 134 4.8 11.3 0.00 0.00 0.00 56 1017.3
20260506191915 23 240 4.8 14.5 0.00 0.00 0.00 59 1017.5
20260506185725 23 156 4.8 11.3 0.00 0.00 0.00 59 1017.6
20260506184923 22 22 3.2 9.7 0.00 0.00 0.00 54 1017.7
20260506182726 22 256 1.6 6.4 0.00 0.00 0.00 53 1017.8
20260506181227 21 214 3.2 9.7 0.00 0.00 0.00 59 1017.9
20260506175724 21 219 1.6 9.7 0.00 0.00 0.00 58 1018.0
20260506174222 20 152 1.6 8.0 0.00 0.00 0.00 64 1017.9
20260506172719 19 311 1.6 8.0 0.00 0.00 0.00 65 1018.0
20260506171220 18 160 3.2 12.9 0.00 0.00 0.00 68 1018.0
20260506165719 18 238 1.6 4.8 0.00 0.00 0.00 71 1018.1
20260506164217 17 220 1.6 8.0 0.00 0.00 0.00 75 1018.1
20260506163409 16 157 1.6 8.0 0.00 0.00 0.00 77 1018.2
20260506161214 16 224 0.0 0.0 0.00 0.00 0.00 78 1018.3
20260506155707 16 256 1.6 8.0 0.00 0.00 0.00 79 1018.3
20260506154208 15 153 1.6 9.7 0.00 0.00 0.00 81 1018.3
20260506152708 15 159 1.6 9.7 0.00 0.00 0.00 84 1018.3
20260506151207 14 166 1.6 9.7 0.00 0.00 0.00 87 1018.2
20260506150410 12 171 0.0 3.2 0.00 0.00 0.00 87 1018.3
20260506144859 12 171 0.0 0.0 0.00 0.00 0.00 87 1018.2